TimeEDT,TemperatureF,Dew PointF,Humidity,Sea Level PressureIn,VisibilityMPH,Wind Direction,Wind SpeedMPH,Gust SpeedMPH,PrecipitationIn,Events,Conditions,WindDirDegrees,DateUTC
12:53 AM,46.9,36.0,66,29.99,10.0,ENE,4.6,-,N/A,,Partly Cloudy,70,2013-04-08 04:53:00
1:53 AM,46.0,36.0,68,29.99,10.0,East,6.9,-,N/A,,Mostly Cloudy,100,2013-04-08 05:53:00
2:53 AM,45.0,36.0,71,29.97,10.0,ENE,4.6,-,N/A,,Clear,70,2013-04-08 06:53:00
3:53 AM,45.0,36.0,71,29.96,10.0,East,5.8,-,N/A,,Clear,100,2013-04-08 07:53:00
4:53 AM,45.0,37.0,74,29.93,10.0,ESE,8.1,-,N/A,,Clear,110,2013-04-08 08:53:00
5:53 AM,46.0,37.0,71,29.93,10.0,East,6.9,-,N/A,,Clear,90,2013-04-08 09:53:00
6:53 AM,48.0,39.0,71,29.93,10.0,ESE,5.8,-,N/A,,Scattered Clouds,120,2013-04-08 10:53:00
7:53 AM,48.9,41.0,74,29.93,9.0,SE,8.1,-,N/A,,Overcast,130,2013-04-08 11:53:00
8:53 AM,53.1,45.0,74,29.93,10.0,SSE,11.5,-,N/A,,Overcast,150,2013-04-08 12:53:00
9:53 AM,60.1,48.0,64,29.91,10.0,South,11.5,-,N/A,,Mostly Cloudy,180,2013-04-08 13:53:00
10:53 AM,66.9,48.0,51,29.87,10.0,South,17.3,23.0,N/A,,Mostly Cloudy,190,2013-04-08 14:53:00
11:53 AM,66.0,46.9,50,29.86,10.0,South,19.6,27.6,N/A,,Mostly Cloudy,180,2013-04-08 15:53:00
12:53 PM,66.0,48.0,52,29.85,10.0,South,15.0,27.6,0.00,Rain,Light Rain,190,2013-04-08 16:53:00
1:53 PM,70.0,50.0,49,29.82,10.0,SSW,18.4,40.3,0.00,,Scattered Clouds,200,2013-04-08 17:53:00
2:53 PM,70.0,51.1,51,29.81,10.0,SSW,23.0,35.7,N/A,,Mostly Cloudy,210,2013-04-08 18:53:00
3:53 PM,69.1,52.0,54,29.82,10.0,SW,18.4,28.8,N/A,,Overcast,220,2013-04-08 19:53:00
4:53 PM,71.1,53.1,53,29.82,10.0,SSW,18.4,28.8,N/A,,Mostly Cloudy,210,2013-04-08 20:53:00
5:53 PM,70.0,53.1,55,29.83,10.0,SSW,18.4,29.9,N/A,,Overcast,210,2013-04-08 21:53:00
6:53 PM,70.0,53.1,55,29.84,10.0,SW,17.3,28.8,N/A,,Partly Cloudy,220,2013-04-08 22:53:00
7:53 PM,69.1,53.1,57,29.86,10.0,SW,13.8,23.0,N/A,,Partly Cloudy,220,2013-04-08 23:53:00
8:53 PM,68.0,53.1,59,29.88,10.0,SW,12.7,-,N/A,,Scattered Clouds,220,2013-04-09 00:53:00
9:02 PM,68.0,53.6,60,29.89,10.0,SW,15.0,-,N/A,Thunderstorm,Mostly Cloudy,220,2013-04-09 01:02:00
9:21 PM,68.0,53.6,60,29.90,10.0,SW,15.0,20.7,N/A,,Scattered Clouds,220,2013-04-09 01:21:00
9:49 PM,66.2,53.6,64,29.93,10.0,WSW,15.0,-,0.00,Rain-Thunderstorm,Light Rain,240,2013-04-09 01:49:00
9:53 PM,66.9,53.1,61,29.92,10.0,WSW,16.1,-,0.00,Thunderstorm,Mostly Cloudy,240,2013-04-09 01:53:00
10:04 PM,66.2,51.8,60,29.93,10.0,SW,15.0,-,N/A,,Mostly Cloudy,230,2013-04-09 02:04:00
10:53 PM,66.0,53.1,63,29.95,10.0,WSW,18.4,26.5,N/A,,Partly Cloudy,240,2013-04-09 02:53:00
11:53 PM,62.1,53.1,72,29.98,10.0,NNW,8.1,-,N/A,,Mostly Cloudy,330,2013-04-09 03:53:00